This is the latest recevied weather packets stored in our database for station/object JA1CAY-13. If no packets are shown the sender has not sent any weather packets the latest 10 day(s).
| Time | Temp. | Humidity | Pressure | Rain* | Wind** | Luminosity | Snow |
|---|---|---|---|---|---|---|---|
| 1778007985 | 10° C | 83% | 1022.9 hPa | 0 mm | - | 0 W/m² | - |
| 1778002585 | 10.56° C | 79% | 1022.6 hPa | 0 mm | - | 0 W/m² | - |
| 1777997726 | 11.67° C | 74% | 1022.4 hPa | 0 mm | - | 0 W/m² | - |
| 1777993945 | 12.78° C | 69% | 1022.5 hPa | 0 mm | - | 0 W/m² | - |
| 1777992325 | 13.33° C | 68% | 1022.7 hPa | 0 mm | - | 0 W/m² | - |
| 1777989625 | 13.89° C | 63% | 1022.4 hPa | 0 mm | - | 0 W/m² | - |
| 1777983685 | 15° C | 60% | 1021.8 hPa | 0 mm | - | 0 W/m² | - |
| 1777980985 | 16.11° C | 56% | 1021.3 hPa | 0 mm | - | 0 W/m² | - |
| 1777977205 | 17.22° C | 51% | 1020.3 hPa | 0 mm | - | 0 W/m² | - |
| 1777976665 | 17.22° C | 50% | 1020.1 hPa | 0 mm | - | 0 W/m² | - |
| 1777976126 | 17.22° C | 50% | 1019.8 hPa | 0 mm | - | 0 W/m² | - |
| 1777971265 | 19.44° C | 49% | 1018.3 hPa | 0 mm | - | 16 W/m² | - |
| 1777970725 | 20° C | 49% | 1018.1 hPa | 0 mm | - | 18 W/m² | - |
| 1777967485 | 21.11° C | 46% | 1017.6 hPa | 0 mm | - | 26 W/m² | - |
| 1777966945 | 21.11° C | 45% | 1017.5 hPa | 0 mm | - | 26 W/m² | - |
| 1777966405 | 21.67° C | 44% | 1017.4 hPa | 0 mm | - | 28 W/m² | - |
| 1777965325 | 21.67° C | 42% | 1017.2 hPa | 0 mm | - | 32 W/m² | - |
| 1777954526 | 25° C | 22% | 1017.7 hPa | 0 mm | - | 905 W/m² | - |
| 1777952905 | 23.33° C | 22% | 1017.9 hPa | 0 mm | - | 940 W/m² | - |
| 1777949125 | 21.11° C | 26% | 1018.5 hPa | 0 mm | - | 986 W/m² | - |
| 1777946425 | 20° C | 28% | 1018.9 hPa | 0 mm | - | 972 W/m² | - |
| 1777940485 | 17.22° C | 37% | 1019.2 hPa | 0 mm | - | 817 W/m² | - |
| 1777936705 | 15.56° C | 41% | 1019.6 hPa | 0 mm | - | 640 W/m² | - |
| 1777931844 | 13.33° C | 50% | 1019.1 hPa | 0 mm | - | 367 W/m² | - |
| 1777929685 | 11.67° C | 54% | 1018.7 hPa | 0 mm | - | 237 W/m² | - |
* Rain latest hour (hover to see other rain measurements)
** Current wind speed in m/s (hover to see current wind gust speed)